Dewpoint
71 71 75 75 75 75 75 75 76 76 75 75 75 74 74 74 74 74 74 75 73 73 74 71 71 72 72 73 73 73 74 74 74 75 75 74 74 74 74 74 74 70 74
70 72 75 76 75 75 75 75 75 76 75 75 75 75 75 75 75 75 75 74 72 74 72 71 70 72 72 73 73 73 74 74 74 75 75 74 74 73 73 73 73 71 73
68 72 72 76 75 75 75 75 76 75 75 75 75 75 74 74 74 74 74 73 73 73 72 72 72 71 72 72 72 72 73 74 73 74 74 70 71 73 74 73 73 73 73
68 70 70 76 76 75 75 75 75 75 75 75 75 75 74 74 74 74 74 73 73 73 73 72 72 72 72 72 73 72 73 74 74 74 71 70 69 73 73 74 73 73 73
69 71 71 76 76 75 75 75 75 75 75 75 75 74 74 74 74 74 74 73 72 73 72 72 72 72 72 71 71 72 73 73 73 71 71 72 70 73 73 73 73 73 73
69 69 73 75 74 75 75 74 75 75 75 75 74 74 74 74 74 74 73 73 72 72 72 72 72 72 71 72 71 72 71 72 71 71 70 71 72 73 72 72 72 73 73
67 70 70 76 75 75 75 74 75 75 75 75 75 75 74 74 74 73 73 73 72 72 72 73 71 71 72 72 72 72 73 71 70 70 70 71 72 74 73 73 73 73 73
68 68 70 75 75 75 75 74 75 75 75 75 74 74 75 75 74 73 73 73 73 73 72 72 71 72 72 72 73 74 72 70 68 70 71 71 73 74 73 73 73 73 73
68 69 70 73 73 74 75 74 75 75 75 74 74 75 75 75 74 74 73 73 72 72 71 71 72 72 72 73 73 73 73 71 69 70 69 70 74 73 73 72 73 73 72
68 68 70 72 70 71 71 74 74 74 74 75 75 75 75 74 74 73 73 73 72 71 71 71 72 72 73 73 73 73 73 72 69 70 68 69 73 72 73 73 73 73 73
68 68 69 70 72 73 72 72 74 74 74 74 74 74 74 73 72 70 73 73 73 73 72 72 72 72 73 73 73 73 72 68 68 68 68 73 73 72 72 73 73 73 73
68 68 69 70 71 71 70 73 73 72 71 72 73 74 73 73 73 70 72 73 73 73 73 73 72 72 70 68 69 72 68 69 68 68 67 73 73 71 72 73 73 72 72
67 67 69 71 72 72 71 72 72 72 72 73 75 73 73 73 73 71 71 69 69 71 68 68 69 68 68 68 68 68 69 69 68 67 70 73 73 72 73 72 72 72 72
67 68 69 71 72 72 72 71 72 71 72 71 72 71 73 72 73 72 70 70 70 70 71 72 71 72 71 70 69 69 69 68 66 67 70 72 73 70 70 73 72 72 71
66 69 69 72 73 73 74 72 71 72 71 70 72 69 72 72 73 71 71 71 71 72 71 72 71 69 69 69 70 70 69 69 68 67 67 71 73 70 71 71 72 72 72
67 68 70 71 72 73 72 74 72 72 71 71 71 68 71 72 73 70 70 71 72 72 72 71 71 69 68 68 70 70 70 69 69 68 69 69 71 71 70 69 70 71 70
68 69 70 71 71 72 72 72 71 70 69 70 71 73 70 71 73 73 73 72 72 73 73 74 72 71 65 66 70 70 70 70 68 68 69 70 69 72 72 70 69 69 68
68 69 70 68 69 70 70 71 69 68 69 70 71 71 71 73 74 75 73 72 73 73 73 76 73 68 66 65 68 68 69 69 68 68 69 70 70 68 71 72 72 72 72
68 70 70 70 69 69 71 70 69 70 69 70 71 71 73 73 72 73 73 73 74 72 72 72 70 69 66 64 66 68 68 66 66 64 68 70 71 70 70 72 73 72 71
68 69 70 69 70 71 70 71 69 68 69 70 70 70 73 73 73 73 74 73 73 74 75 73 73 71 69 67 62 65 66 67 68 66 67 66 68 70 69 71 71 70 73
68 69 69 70 71 70 68 67 68 67 68 69 70 73 73 73 74 75 73 73 73 73 75 73 70 69 67 66 67 63 64 67 67 67 67 67 67 67 68 69 69 69 68
67 69 70 70 71 71 69 70 69 70 69 71 71 73 74 73 75 74 74 73 73 72 74 72 71 64 66 66 63 63 59 62 64 64 66 66 67 67 67 67 69 70 70
66 68 69 71 71 71 72 70 71 71 70 69 70 71 73 74 74 75 74 73 73 78 75 74 70 68 63 67 66 63 59 57 62 64 65 66 68 67 67 68 68 69 70
66 67 70 71 71 71 73 71 72 67 67 68 69 70 73 74 74 75 75 74 75 76 77 73 71 70 68 64 65 64 66 65 57 57 63 65 67 66 67 67 66 67 69
65 66 67 70 72 72 73 73 70 70 68 69 68 72 74 75 74 74 75 75 75 75 76 74 74 73 68 65 63 64 67 65 65 60 57 61 64 65 66 66 65 65 68
64 66 67 70 71 72 72 72 73 73 71 68 69 68 68 70 72 74 74 75 75 74 75 74 75 74 71 68 66 66 62 61 61 61 60 62 60 63 64 65 66 65 65
Lifted_Index
-2 -3 -3 -4 -4 -5 -5 -5 -5 -5 -6 -6 -6 -6 -6 -6 -6 -6 -6 -6 -5 -5 -5 -4 -3 -4 -4 -4 -4 -5 -5 -6 -6 -7 -7 -7 -7 -7 -6 -6 -6 -6 -6
-2 -3 -4 -4 -5 -5 -5 -5 -6 -6 -6 -6 -6 -6 -6 -6 -6 -6 -6 -6 -5 -5 -4 -4 -4 -4 -4 -4 -4 -5 -5 -6 -6 -6 -7 -7 -7 -6 -6 -6 -6 -6 -6
-2 -3 -4 -5 -5 -5 -5 -5 -6 -6 -6 -6 -6 -6 -6 -6 -6 -6 -6 -5 -5 -5 -4 -4 -4 -4 -4 -4 -4 -4 -5 -5 -6 -6 -6 -6 -6 -6 -6 -6 -6 -6 -5
-2 -3 -4 -5 -5 -5 -5 -5 -6 -6 -6 -6 -6 -6 -6 -6 -6 -6 -5 -5 -5 -5 -4 -4 -4 -4 -4 -4 -4 -4 -5 -5 -5 -6 -6 -6 -6 -6 -6 -6 -6 -5 -5
-2 -3 -4 -5 -5 -5 -5 -5 -5 -6 -6 -6 -6 -6 -6 -5 -5 -5 -5 -5 -5 -5 -4 -4 -4 -4 -4 -4 -4 -4 -4 -4 -5 -5 -6 -6 -6 -6 -6 -6 -5 -5 -5
-3 -3 -4 -5 -5 -5 -5 -5 -5 -6 -6 -6 -5 -5 -5 -5 -5 -5 -5 -4 -4 -4 -4 -4 -4 -4 -4 -4 -4 -4 -4 -4 -4 -5 -5 -5 -6 -6 -6 -5 -5 -5 -5
-2 -3 -4 -5 -5 -5 -5 -5 -5 -5 -5 -5 -5 -5 -5 -5 -5 -5 -4 -4 -4 -4 -4 -4 -4 -4 -4 -4 -4 -4 -4 -3 -4 -4 -5 -5 -6 -6 -5 -5 -5 -5 -5
-2 -3 -4 -4 -5 -5 -5 -5 -5 -5 -5 -5 -5 -5 -5 -5 -5 -4 -4 -4 -4 -4 -4 -3 -3 -4 -4 -4 -5 -5 -4 -3 -4 -4 -5 -5 -5 -5 -5 -5 -5 -5 -5
-2 -3 -3 -4 -4 -4 -4 -5 -5 -5 -5 -5 -5 -5 -5 -5 -5 -4 -4 -4 -4 -3 -3 -3 -3 -4 -4 -4 -5 -5 -4 -4 -4 -5 -5 -5 -5 -5 -5 -5 -5 -5 -5
-2 -2 -3 -3 -4 -4 -4 -4 -4 -5 -5 -5 -5 -5 -5 -5 -4 -4 -4 -4 -4 -3 -3 -3 -3 -4 -4 -4 -5 -5 -4 -4 -4 -4 -5 -5 -5 -5 -5 -5 -6 -6 -5
-2 -2 -3 -3 -3 -4 -4 -4 -4 -4 -4 -5 -5 -5 -5 -5 -4 -4 -4 -4 -4 -3 -3 -3 -3 -4 -4 -4 -4 -4 -4 -4 -4 -4 -4 -5 -5 -5 -5 -6 -6 -6 -6
-2 -2 -3 -3 -3 -4 -4 -4 -4 -4 -4 -4 -4 -4 -4 -4 -4 -3 -3 -3 -3 -3 -3 -3 -3 -3 -3 -3 -4 -4 -3 -3 -3 -3 -4 -4 -5 -5 -5 -6 -6 -5 -5
-2 -2 -3 -3 -3 -4 -4 -4 -4 -4 -4 -4 -4 -4 -4 -4 -4 -4 -3 -3 -2 -3 -3 -3 -3 -3 -3 -3 -3 -3 -3 -3 -3 -3 -3 -4 -4 -4 -5 -5 -5 -5 -5
-2 -2 -3 -3 -3 -4 -4 -4 -4 -4 -4 -4 -4 -3 -4 -4 -4 -4 -3 -2 -2 -2 -3 -3 -3 -3 -3 -3 -3 -3 -3 -3 -2 -3 -3 -4 -4 -4 -4 -4 -5 -4 -4
-2 -2 -3 -3 -3 -3 -4 -4 -4 -4 -4 -4 -3 -3 -3 -4 -4 -4 -3 -3 -3 -3 -3 -4 -3 -3 -2 -3 -3 -3 -3 -3 -2 -2 -3 -3 -3 -3 -3 -4 -4 -4 -4
-2 -3 -3 -3 -3 -3 -3 -4 -4 -4 -4 -4 -4 -3 -3 -4 -4 -3 -3 -3 -4 -4 -4 -4 -4 -3 -2 -2 -3 -4 -3 -3 -2 -2 -3 -3 -3 -3 -3 -3 -3 -3 -3
-3 -3 -3 -3 -3 -3 -3 -3 -3 -3 -3 -4 -4 -3 -3 -3 -4 -4 -4 -4 -4 -4 -4 -4 -4 -3 -2 -2 -3 -3 -3 -3 -2 -2 -3 -3 -3 -3 -3 -3 -3 -3 -3
-2 -3 -2 -2 -2 -2 -2 -2 -2 -2 -3 -3 -4 -3 -3 -3 -4 -4 -4 -4 -4 -4 -4 -4 -4 -2 -1 -1 -2 -3 -3 -2 -2 -2 -3 -3 -3 -4 -4 -4 -4 -3 -3
-2 -2 -2 -2 -2 -2 -2 -2 -2 -2 -2 -3 -3 -3 -4 -4 -4 -4 -5 -5 -4 -4 -4 -4 -4 -3 -1 -1 -1 -2 -2 -2 -2 -2 -2 -3 -3 -3 -3 -3 -4 -3 -3
-2 -2 -2 -2 -2 -2 -2 -2 -2 -2 -2 -2 -3 -3 -4 -4 -4 -4 -4 -4 -4 -4 -4 -4 -3 -3 -1 -0 -0 -1 -1 -1 -2 -2 -2 -2 -2 -3 -3 -3 -3 -3 -3
-2 -2 -2 -2 -2 -2 -2 -2 -2 -2 -2 -3 -3 -3 -4 -4 -4 -4 -4 -4 -4 -4 -4 -3 -3 -2 -1 0 1 0 -0 -1 -1 -2 -2 -2 -2 -2 -2 -2 -2 -2 -2
-2 -2 -2 -2 -2 -2 -2 -2 -2 -3 -3 -3 -3 -4 -4 -4 -4 -4 -4 -4 -4 -4 -4 -3 -2 -1 -0 0 1 1 1 0 -0 -1 -2 -2 -2 -2 -2 -2 -2 -2 -2
-2 -2 -2 -2 -2 -2 -2 -2 -2 -3 -3 -3 -3 -4 -4 -4 -4 -4 -4 -3 -3 -4 -4 -3 -2 -1 -0 0 0 1 1 1 1 -0 -1 -1 -2 -2 -2 -2 -2 -2 -2
-2 -2 -2 -2 -2 -2 -2 -2 -2 -3 -3 -3 -3 -3 -4 -4 -4 -4 -4 -4 -3 -4 -4 -4 -3 -2 -1 -0 0 1 0 1 1 1 0 -1 -1 -2 -2 -2 -2 -2 -2
-1 -1 -1 -1 -1 -2 -2 -2 -2 -3 -3 -2 -2 -3 -4 -4 -4 -4 -4 -4 -4 -4 -4 -4 -4 -3 -1 -1 -0 -0 -0 0 1 1 1 0 -1 -1 -2 -2 -2 -2 -2
-1 -1 -1 -1 -1 -2 -2 -2 -3 -3 -2 -2 -2 -3 -3 -4 -4 -4 -4 -4 -4 -4 -4 -5 -4 -3 -2 -1 -1 -1 -0 -0 0 1 1 0 -0 -1 -1 -2 -2 -2 -2